Tracking 25410 objects as of 21-Jan-2022
HD Live streaming from Space Station
objects crossing your sky now

OPS 0054 (DMSP 5A F1)

Track OPS 0054 (DMSP 5A F1) now!
10-day predictions
OPS 0054 (DMSP 5A F1) is classified as:


NORAD ID: 4331
Int'l Code: 1970-012A
Perigee: 747.4 km
Apogee: 831.3 km
Inclination: 98.8 °
Period: 100.5 minutes
Semi major axis: 7160 km
RCS: 0.986 m2 (medium)
Launch date: February 11, 1970
Source: United States (US)
Launch site: AIR FORCE WESTERN TEST RANGE (AFWTR)
aabbcc
Your satellite tracking list
Your tracking list is empty




NASA's NSSDC Master Catalog

Two Line Element Set (TLE):
1  4331U 70012A   22021.29707076  .00000060  00000-0  38143-4 0  9995
2  4331  98.8334 129.9173 0058554 358.0452   2.0493 14.32846635707277
Source of the keplerian elements: AFSPC